Location: Ausser-Milchbrunnen
(46.9661°N, 8.3789°E)
Time: 18:19:08
(UTC+00:00)

Daily predictions for brighter satellites

Satellite Brightness Start Highest point End
(mag) Time Altitude Azimuth Time Altitude Azimuth Time Altitude Azimuth
Cosmos 304 Rocket 4.1 19:19:06 10° NNW 19:23:52 68° WSW 19:28:36 10° S
Cosmos 158 Rocket 4.3 19:19:49 10° SSW 19:25:02 77° WNW 19:30:25 10° NNE
SPOT 3 Rocket 4.3 19:20:29 10° SE 19:25:15 37° ENE 19:30:02 10° N
Meteor 2-19 Rocket 4.5 19:19:46 10° S 19:25:43 65° E 19:31:44 10° NNE
Cosmos 2151 3.0 19:23:40 10° S 19:27:55 78° E 19:32:14 10° NNE
Cosmos 2084 3.3 19:26:10 10° SSW 19:30:12 76° SE 19:34:23 10° NE
Resurs 01 Rocket 2.0 19:28:48 10° SE 19:33:04 48° ENE 19:37:22 10° N
Gbstr 26 Del rocket 4.1 19:31:47 10° W 19:35:02 28° SW 19:38:22 10° SSE
Cosmos 1980 Rocket 4.5 19:33:33 10° NW 19:37:48 22° W 19:42:03 10° SSW
Cosmos 1812 3.8 19:37:23 10° NNE 19:40:48 29° ENE 19:44:02 11° SE
Cosmos 1933 3.4 19:37:05 10° N 19:41:08 83° W 19:45:08 10° S
Cosmos 1689 Rocket 3.6 19:38:54 10° N 19:41:29 37° WNW 19:44:03 10° SW
Cosmos 1782 2.9 19:39:05 10° N 19:43:05 61° E 19:47:00 10° SSE
Landsat 7 4.0 19:38:51 10° SSE 19:43:30 57° ENE 19:48:11 10° N
MOS 1 4.5 19:41:35 10° S 19:47:14 78° WSW 19:52:55 10° NNW
SL-27 R/B 2.9 19:44:58 10° S 19:48:20 40° ESE 19:51:44 10° NE
Cosmos 2333 Rocket 3.0 19:46:32 10° NNW 19:51:48 38° NE 19:56:33 12° ESE
BREEZE-M DEB (TANK) 2.8 19:49:53 10° W 19:52:41 50° SSW 19:58:28 12° SE
Cosmos 2237 Rocket 4.3 19:50:17 10° N 19:53:22 15° NE 19:56:27 10° ENE
Cosmos 2322 Rocket 2.4 19:48:21 10° NNW 19:53:58 73° WSW 19:59:33 10° SSE
SPOT 5 4.2 19:52:44 11° ESE 19:55:48 22° ENE 19:59:15 10° NNE
Cosmos 2195 Rocket 4.5 19:49:51 10° S 19:55:58 87° E 20:02:07 10° N
ARIANE 5 R/B 3.9 19:54:19 13° ESE 19:57:29 26° ENE 20:01:09 10° N
OBJECT-B 3.6 19:57:49 10° SW 20:00:04 18° W 20:02:21 10° NW
BREEZE-M R/B 4.0 19:55:48 10° SSW 20:00:05 22° SSE 20:02:47 11° E
BREEZE-M DEB (TANK) 4.1 20:01:55 10° W 20:05:14 51° SSW 20:12:58 14° SE
Cosmos 2219 Rocket 2.9 20:00:44 10° NNW 20:06:00 39° NE 20:10:11 15° ESE
Cosmos 2056 Rocket 3.6 20:05:26 10° NNW 20:10:48 85° WSW 20:15:29 13° SSE
ATLAS 5 CENTAUR R/B 3.0 20:06:58 10° NNW 20:12:05 43° NE 20:17:08 14° ESE
Meteor 2-14 Rocket 4.5 20:10:43 10° S 20:16:44 62° E 20:22:47 10° NNE
Spot 2 Rocket 3.8 20:14:03 17° SE 20:17:51 52° ENE 20:22:48 10° N
SPOT 1/Viking Rocket 3.5 20:14:27 13° SSE 20:19:05 81° ENE 20:24:20 10° NNW
USA 245 3.4 20:16:53 18° SSE 20:19:57 62° ENE 20:23:24 10° N
Cosmos 1408 Rocket 3.8 20:17:00 14° SSE 20:20:27 49° E 20:24:38 10° NNE
NOSS 2-1 (E) 3.5 20:19:14 10° SW 20:22:28 58° NW 20:25:53 10° NNE
Cosmos 1655 Rocket 4.4 20:19:07 14° SSE 20:24:16 45° E 20:30:20 10° NNE
Cosmos 2026 Rocket 4.4 20:19:00 10° SSW 20:25:16 69° W 20:31:29 10° N
CZ-2C R/B 3.6 20:21:49 10° NNE 20:26:16 63° ESE 20:30:28 11° S
SL-16 R/B 3.7 20:22:17 10° NW 20:27:14 31° WSW 20:32:09 10° SSW
Cosmos 1743 Rocket 4.4 20:25:40 22° SE 20:27:37 32° E 20:31:33 10° NNE
IGS 5A 4.4 20:23:44 10° S 20:27:41 44° W 20:31:41 10° NNW
GP-B 3.2 20:24:48 10° N 20:29:16 79° W 20:33:40 10° S
CARTOSAT-1 3.6 20:29:08 22° SSE 20:31:49 66° ENE 20:36:07 10° N
Cosmos 1151 Rocket 3.8 20:27:36 10° NNW 20:31:52 52° W 20:36:06 10° S
NOSS 3-1 (C) 4.1 20:27:01 10° NW 20:34:30 86° SW 20:40:55 20° SE
Lacrosse 5 2.8 20:33:37 22° SSE 20:34:57 25° SE 20:39:04 10° ENE
Okean 3 Rocket 4.1 20:32:34 10° SSW 20:37:01 60° WNW 20:41:32 10° N
Cosmos 2333 4.1 20:32:35 10° NNW 20:38:14 89° ENE 20:41:51 23° SSE
ERS-2 3.9 20:37:50 10° N 20:41:08 32° WNW 20:44:24 10° SW
Meteor 1-10 Rocket 4.1 20:37:23 10° N 20:42:58 86° ENE 20:46:47 21° SSE
COSMOS 2487 2.3 20:45:40 35° S 20:46:50 58° ESE 20:50:11 10° NNE
Cosmos 1515 Rocket 3.6 20:44:48 10° N 20:49:14 82° W 20:51:44 25° S
COSMOS 2428 2.8 20:45:08 10° NNW 20:50:50 67° ENE 20:53:52 28° SE
USA 229 DEB 3.9 20:45:22 10° NW 20:52:43 82° NE 20:57:36 25° SE
USA 229 3.9 20:45:28 10° NW 20:52:49 82° NE 20:57:42 25° SE
COSMOS 2455 2.8 20:47:07 10° SSW 20:53:07 80° ESE 20:59:10 10° NE
Terra 2.0 20:54:31 31° SE 20:56:35 57° ENE 21:01:16 10° N
Cosmos 292 Rocket 4.4 20:52:29 10° NNW 20:57:07 50° WSW 20:59:58 22° S
Cosmos 2360 Rocket 3.3 20:55:27 10° NW 21:00:35 37° WSW 21:04:36 16° SSW
Cosmos 2084 Rocket 4.0 20:56:39 10° NNW 21:00:44 50° NE 21:02:26 31° ESE
Cosmos 1048 Rocket 4.0 20:59:49 25° S 21:02:38 59° ESE 21:07:40 10° NNE
Cosmos 972 Rocket 3.8 21:01:59 20° S 21:05:32 73° ESE 21:10:27 10° NNE
Resurs 01 Rocket 3.9 21:06:37 10° SW 21:09:50 19° W 21:13:03 10° NW
NOSS 3-1 (A) 4.1 21:05:49 10° NW 21:13:20 82° SW 21:18:16 29° SSE
IRIDIUM 106 4.5 21:08:24 10° N 21:13:35 58° E 21:15:23 38° SE
Cosmos 2266 Rocket 4.0 21:09:42 19° S 21:14:15 89° W 21:20:36 10° N
Cosmos 1707 Rocket 4.3 21:11:51 10° N 21:15:56 36° ENE 21:16:40 33° E
H-2A R/B 4.0 21:12:52 10° NNE 21:16:52 40° E 21:17:03 40° ESE
Okean 1 4.4 21:13:28 10° N 21:17:01 29° ENE 21:17:20 29° E
Cosmos 1980 4.3 21:11:44 10° NNW 21:17:11 45° NE 21:19:35 29° ESE
ERS-1 Rocket 3.3 21:20:14 30° S 21:22:36 61° WSW 21:27:35 10° NNW
Cosmos 2228 Rocket 3.0 21:21:11 10° N 21:25:39 84° W 21:26:53 47° S
Cosmos 2285 Rocket 4.1 21:23:55 10° NNW 21:30:11 70° WSW 21:33:03 34° S
Cosmos 2297 Rocket 2.9 21:31:26 33° ESE 21:31:39 33° ESE 21:36:40 10° NE
Cosmos 1805 Rocket 3.5 21:31:36 50° S 21:32:44 88° ESE 21:37:10 10° N
SPOT 5 3.4 21:31:58 30° SSW 21:33:36 44° W 21:37:56 10° NNW
ARIANE 5 R/B 3.8 21:31:52 25° SW 21:33:48 36° W 21:37:54 10° NNW
Cosmos 972 4.5 21:32:40 41° S 21:34:27 68° ESE 21:39:28 10° NNE
Cosmos 2315 Rocket 4.0 21:28:16 10° N 21:34:38 82° W 21:37:37 34° S
BREEZE-M DEB (TANK) 2.0 21:29:44 10° WNW 21:34:36 72° SW 21:34:36 72° SW
NOSS 0 Rocket 3.9 21:29:15 10° NNW 21:35:32 84° ENE 21:37:53 41° SSE
Cosmos 2333 Rocket 3.1 21:30:52 10° NW 21:36:06 40° WSW 21:38:33 26° SSW
Cosmos 2237 Rocket 2.4 21:33:02 10° NNW 21:38:41 60° ENE 21:40:34 40° ESE
USA 234 4.4 21:33:30 10° ENE 21:39:31 41° NNE 21:45:33 10° NW
Meteor 1-20 Rocket 4.1 21:40:22 41° S 21:42:28 81° E 21:48:15 10° NNE
Cosmos 1452 Rocket 4.4 21:37:36 10° NW 21:42:30 41° WSW 21:44:29 29° SSW
Cosmos 2227 Rocket 3.0 21:44:50 32° E 21:44:50 32° E 21:49:36 10° NE
ALOS 2 4.2 21:45:45 21° ENE 21:46:25 22° ENE 21:49:47 10° NNE
NOSS 2-2 (E) 4.4 21:41:05 10° NW 21:46:25 79° NE 21:49:13 39° SE
USA 102 1.6 19:47:22 10° NE 21:50:35 28° NW 21:56:46 10° NNW
Cosmos 2219 Rocket 3.2 21:44:49 10° NW 21:49:55 37° WSW 21:51:54 28° SSW
USA 40 PKM 4.2 21:46:51 10° NW 21:50:30 79° NE 21:50:40 76° ENE
Sich 1 3.1 21:53:27 57° SW 21:54:13 72° W 21:58:32 10° N
ATLAS 5 CENTAUR R/B 2.9 21:51:26 10° NW 21:56:53 48° WSW 21:58:38 38° SSW
Cosmos 1515 3.8 21:53:48 10° NNW 21:57:27 67° W 21:57:27 67° W
Cosmos 1331 Rocket 4.2 21:53:21 10° NNW 21:58:30 62° WSW 21:59:36 50° SSW
BREEZE-M DEB (TANK) 4.5 21:42:49 10° WSW 21:58:36 62° SSE 22:02:13 20° E
Cosmos 1110 Rocket 4.4 21:54:43 10° NNW 21:59:55 55° WSW 22:01:08 45° SSW
Nadezhda 1 Rocket 4.4 21:58:42 10° N 22:04:58 53° ENE 22:06:40 42° ESE
Cosmos 1633 Rocket 2.9 22:10:51 81° ENE 22:10:51 81° ENE 22:15:09 10° N
SL-16 R/B 3.1 22:05:46 10° NNW 22:11:07 41° NE 22:12:56 32° E
NOSS 2-2 (C) 4.3 22:07:07 10° NW 22:12:26 87° SW 22:14:24 49° SE
Cosmos 1470 Rocket 4.1 22:14:08 47° ENE 22:14:08 47° ENE 22:17:48 10° NNE
Cosmos 1666 3.8 22:15:50 36° NE 22:15:50 36° NE 22:18:30 10° NNE
Lacrosse 5 2.0 22:12:26 10° WSW 22:17:31 74° NW 22:22:37 10° NE
Cosmos 1666 Rocket 3.7 22:21:09 62° WSW 22:21:30 65° WNW 22:25:57 10° N
SL-08 ROCKET BODY 4.4 22:21:32 50° SSW 22:23:16 85° W 22:29:30 10° N
Cosmos 1340 Rocket 3.9 22:28:39 35° NE 22:28:39 35° NE 22:31:20 10° NNE
COSMOS 2428 4.4 22:30:25 10° NW 22:34:32 21° W 22:35:52 19° WSW
Terra 3.8 22:33:24 17° WSW 22:34:41 18° W 22:38:00 10° NW
CZ-4C R/B 3.4 22:29:37 10° NW 22:36:34 58° NE 22:41:11 27° ESE
COBE Rocket 4.0 22:36:50 56° WSW 22:37:00 56° W 22:41:42 10° NNW
Meteor 2-4 Rocket 3.7 22:33:53 10° NNW 22:39:49 78° W 22:40:46 62° SSW
Timation 2 Rocket 3.8 22:39:27 60° SE 22:40:01 63° ESE 22:46:07 10° NNE
CZ-3B R/B 2.9 22:33:56 10° WNW 22:39:48 43° W 22:39:48 43° W
Cosmos 1992 Rocket 3.9 22:37:35 10° NNW 22:42:50 72° ENE 22:43:15 68° ESE
Cosmos 2242 Rocket 4.0 22:40:32 10° N 22:44:34 56° NE 22:44:34 56° NE
Cosmos 1862 Rocket 4.2 22:41:24 10° NNW 22:45:19 47° W 22:45:19 47° W
USA 267 3.3 22:41:16 10° ENE 22:47:41 55° SE 22:48:10 54° SSE
Cosmos 2219 3.2 22:48:17 56° SW 22:49:32 79° WNW 22:55:20 10° NNE
Meteor 1-5 Rocket 4.2 22:49:37 64° SSW 22:50:35 85° W 22:56:34 10° N
Spot 4 4.1 22:52:09 55° WSW 22:52:11 55° W 22:56:57 10° NNW
Cosmos 1066 Rocket 4.4 22:48:45 10° N 22:54:35 61° ENE 22:55:26 54° ESE
Cosmos 2082 3.7 23:01:12 65° ESE 23:01:20 65° ESE 23:07:01 10° NNE
Cosmos 1703 Rocket 3.8 22:57:28 10° N 23:01:20 69° N 23:01:20 69° N
Cosmos 909 Rocket 4.2 23:02:47 47° SW 23:04:59 89° WNW 23:12:57 10° NE
Cosmos 1378 4.3 23:01:25 10° N 23:03:58 42° NNW 23:03:58 42° NNW
Meteor 1-11 Rocket 3.6 23:05:19 65° ESE 23:05:34 66° E 23:11:04 10° NNE
Okean 1-7 3.4 23:05:58 10° NNW 23:09:33 60° NNW 23:09:33 60° NNW
Cosmos 2181 Rocket 4.1 23:05:22 10° N 23:11:37 62° ENE 23:12:46 53° ESE
Cosmos 2297 Rocket 3.1 23:13:12 29° WSW 23:15:33 44° NW 23:20:59 10° NNE
Nimbus 7 Rocket 4.3 23:12:08 10° NNE 23:18:09 79° ESE 23:18:52 68° SSE
Meteor 1-23 Rocket 4.3 23:15:05 10° N 23:20:49 66° ENE 23:21:35 59° ESE
USA 234 3.4 23:18:04 26° ESE 23:22:02 74° NNE 23:28:34 10° NW
Cosmos 2237 Rocket 3.6 23:17:53 10° NW 23:22:18 24° WSW 23:22:23 24° WSW
ALOS 2 3.5 23:23:09 41° WNW 23:23:09 41° WNW 23:26:42 10° NNW
Cosmos 614 Rocket 4.0 23:23:41 69° E 23:23:41 69° E 23:28:44 10° NNE
Cosmos 1461 3.4 23:27:18 61° NNE 23:27:18 61° NNE 23:30:59 10° NE
Cosmos 1709 Rocket 4.0 23:26:19 60° SW 23:27:31 77° W 23:33:57 10° N
Meteor 1-13 Rocket 4.2 23:22:48 10° NNW 23:28:28 64° W 23:28:50 63° WSW
Cosmos 2227 Rocket 3.0 23:26:37 34° WSW 23:28:32 46° NW 23:33:59 10° NNE
SL-24 R/B - RUBIN 2 4.3 23:27:09 10° NNW 23:32:09 53° NE 23:32:45 50° ENE
Cosmos 2263 Rocket 2.7 23:33:28 44° ESE 23:33:28 44° ESE 23:38:44 10° NE
Cosmos 2344 4.0 23:34:40 39° SE 23:35:32 40° ESE 23:42:31 10° NE
Cosmos 1536 3.7 23:40:44 47° NNW 23:40:44 47° NNW 23:43:54 10° N
Cosmos 1603 4.3 23:34:23 10° NNW 23:39:53 51° ENE 23:41:32 39° ESE
PSLV R/B 3.9 23:38:10 10° NNE 23:42:34 69° ENE 23:42:34 69° ENE
Cosmos 1842 4.5 23:41:15 10° N 23:44:12 37° NE 23:44:12 37° NE
Okean 3 4.3 23:42:29 10° NNW 23:45:46 44° NW 23:45:46 44° NW
Cosmos 1869 Rocket 4.0 23:47:06 57° NW 23:47:06 57° NW 23:51:05 10° N
ASTEX 1 3.9 23:46:47 47° E 23:47:08 48° ENE 23:51:53 10° N
Cosmos 44 3.8 23:47:03 10° NW 23:51:25 53° W 23:51:25 53° W
Thor Agena Rocket 3.3 23:47:23 10° NNE 23:52:28 86° WNW 23:52:34 84° WSW
